Eden Prairie, MN

6:39 AM CST on February 19, 2017 (GMT -0600)
Flying Cloud

Weather History for KFCM - September, 2012

Change the Weather History Date:

Wednesday, September 26, 2012

  Actual Average Record
Temperature  
Mean Temperature 52 °F -  
Max Temperature 64 °F 65 °F 86 °F (2008)
Min Temperature 39 °F 45 °F 37 °F (2001)
Degree Days  
Heating Degree Days 14    
Growing Degree Days 2 (Base 50)    
Moisture  
Dew Point 37 °F    
Average Humidity 61    
Maximum Humidity 89    
Minimum Humidity 33    
Precipitation  
Precipitation 0.00 in - - ()
Sea Level Pressure  
Sea Level Pressure 30.10 in    
Wind  
Wind Speed 5 mph (NNE)    
Max Wind Speed 9 mph    
Max Gust Speed -    
Visibility 10 miles    
Events      
Averages and records for this station are not official NWS values.
T = Trace of Precipitation, MM = Missing Value Source: NWS Daily Summary

Daily Weather History Graph

Daily Weather History Graph

Search for Another Location

Airport or City:

Trip Planner

Search our weather history database for the weather conditions in past years. The results will help you decide how hot, cold, wet, or windy it might be!

Date:

Astronomy

Sep. 26, 2012 Rise Set
Actual Time 7:06 AM CDT 7:02 PM CDT
Civil Twilight 6:37 AM CDT 7:31 PM CDT
Nautical Twilight 6:03 AM CDT 8:05 PM CDT
Astronomical Twilight 5:28 AM CDT 8:40 PM CDT
Moon 5:08 PM CDT (9/26) 3:25 AM CDT (9/26)
Length of Visible Light 12h 54m
Length of Day
11h 56m
Waxing Gibbous, 88% of the Moon is Illuminated
Sep 26
Waxing Gibbous
Sep 29
Full
Oct 8
Last Quarter
Oct 15
New
Oct 21
First Quarter

Hourly Weather History & Observations

Time (CDT) Temp. Windchill Dew Point Humidity Pressure Visibility Wind Dir Wind Speed Gust Speed Precip Events Conditions
12:53 AM 46.0 °F 44.8 °F 39.9 °F 79% 29.95 in 10.0 mi North 3.5 mph - N/A   Clear
1:53 AM 46.0 °F 43.1 °F 37.9 °F 73% 29.97 in 10.0 mi North 5.8 mph - N/A   Clear
3:53 AM 43.0 °F 39.5 °F 37.0 °F 80% 30.01 in 10.0 mi NNE 5.8 mph - N/A   Clear
4:53 AM 41.0 °F 38.0 °F 37.0 °F 86% 30.03 in 10.0 mi NNE 4.6 mph - N/A   Clear
5:53 AM 41.0 °F 37.1 °F 37.0 °F 86% 30.04 in 10.0 mi NNE 5.8 mph - N/A   Clear
6:53 AM 39.9 °F 35.8 °F 37.0 °F 89% 30.05 in 10.0 mi NNE 5.8 mph - N/A   Clear
7:53 AM 43.0 °F 41.3 °F 37.0 °F 80% 30.07 in 10.0 mi North 3.5 mph - N/A   Clear
8:53 AM 48.9 °F - 39.0 °F 69% 30.09 in 10.0 mi NE 5.8 mph - N/A   Clear
9:53 AM 53.1 °F - 37.9 °F 57% 30.12 in 10.0 mi Variable 3.5 mph - N/A   Clear
10:53 AM 55.0 °F - 37.9 °F 53% 30.13 in 10.0 mi NE 8.1 mph - N/A   Clear
11:53 AM 59.0 °F - 37.0 °F 44% 30.14 in 10.0 mi NE 9.2 mph - N/A   Clear
12:53 PM 61.0 °F - 36.0 °F 39% 30.14 in 10.0 mi NNE 8.1 mph - N/A   Clear
1:53 PM 63.0 °F - 37.0 °F 38% 30.12 in 10.0 mi North 8.1 mph - N/A   Clear
2:53 PM 64.0 °F - 37.0 °F 37% 30.12 in 10.0 mi Variable 5.8 mph - N/A   Clear
3:53 PM 63.0 °F - 33.1 °F 33% 30.13 in 10.0 mi East 3.5 mph - N/A   Clear
5:53 PM 62.1 °F - 33.1 °F 34% 30.14 in 8.0 mi North 6.9 mph - N/A   Clear
6:53 PM 57.9 °F - 34.0 °F 41% 30.16 in 9.0 mi NNE 5.8 mph - N/A   Clear
9:53 PM 50.0 °F - 36.0 °F 59% 30.20 in 10.0 mi NNE 4.6 mph - N/A   Clear
10:53 PM 48.0 °F - 37.0 °F 66% 30.21 in 10.0 mi Calm Calm - N/A   Clear
11:53 PM 45.0 °F - 37.9 °F 76% 30.22 in 10.0 mi Calm Calm - N/A   Clear